GFSNIL_925_spd_336.txt.gz
Wind_Speed
17 15 15 13 12 12 11 8 4 9 9 8 8 7 7 5 4 4 5 6 8 9
16 18 17 15 13 13 12 10 7 8 9 9 9 9 8 6 5 4 4 4 6 8
19 19 19 17 17 15 13 11 9 10 10 10 11 11 10 8 8 7 6 5 6 6
19 19 18 18 18 17 16 14 13 12 12 12 13 13 13 12 10 10 8 7 8 8
20 21 18 18 18 18 18 17 17 16 15 15 15 15 15 14 11 10 9 8 8 9
17 16 17 20 17 17 19 19 18 18 19 19 18 18 18 17 16 15 13 11 10 9
9 15 15 15 16 17 17 19 19 21 21 21 21 21 20 19 18 16 15 16 16 15
7 6 8 11 16 16 16 18 19 21 22 23 24 24 23 23 21 20 20 20 20 17
13 13 13 14 14 14 15 17 18 21 22 23 25 26 29 25 23 21 17 15 20 18
4 6 7 7 9 12 14 15 17 19 20 23 24 27 30 32 23 6 9 15 18 23
2 1 2 4 6 8 10 13 15 17 19 21 23 26 28 29 22 6 10 34 29 24
2 1 2 4 5 7 9 10 11 13 15 18 21 24 26 34 36 39 29 31 30 24
3 2 3 5 6 6 8 10 10 12 12 15 17 19 18 24 35 28 25 30 35 33
2 1 2 4 6 8 10 11 11 11 12 14 15 15 17 18 35 28 25 29 31 34

GFSNIL_925_spd_339.txt.gz
Wind_Speed
17 15 14 12 11 10 9 4 9 5 7 7 7 8 7 7 6 6 6 6 7 8
19 19 14 11 10 11 9 7 4 5 7 7 9 9 9 8 8 7 7 7 8 10
22 19 16 13 13 11 9 10 6 7 9 10 10 10 11 9 9 9 8 7 8 8
20 18 16 16 16 16 14 13 12 12 12 12 12 12 12 11 7 10 10 8 8 9
15 16 16 17 16 16 17 17 17 16 16 16 15 15 16 15 14 14 12 12 12 12
9 10 14 16 14 14 15 17 17 18 19 19 18 18 17 17 17 16 16 15 16 15
11 12 13 11 13 14 14 15 17 18 19 20 20 21 20 20 21 20 18 18 16 13
6 6 7 8 10 11 13 15 18 19 20 21 21 23 25 24 24 24 20 14 12 11
11 10 10 13 13 13 14 16 18 19 21 22 24 26 28 28 26 8 25 21 21 18
8 8 6 6 8 11 13 15 16 18 21 22 24 26 27 29 11 19 22 30 20 20
7 5 3 1 2 4 6 8 10 13 16 18 22 25 26 27 24 25 23 34 29 26
6 4 2 2 3 5 7 9 11 12 13 15 16 17 21 18 27 37 36 31 31 33
8 5 3 1 3 5 7 11 12 13 13 16 17 19 18 11 17 25 30 31 34 32
7 5 3 2 3 5 8 11 13 14 16 17 17 16 19 17 19 22 24 25 24 24

GFSNIL_925_spd_342.txt.gz
Wind_Speed
21 15 14 11 13 12 8 8 9 9 12 11 9 8 8 7 8 10 8 9 9 10
22 21 18 17 15 12 6 12 13 13 12 10 9 8 10 9 11 6 9 9 10 12
20 22 19 10 14 12 8 9 13 10 7 9 10 11 11 11 13 12 10 9 14 8
19 18 17 15 13 17 13 10 8 10 10 12 12 13 14 14 10 16 14 15 15 14
19 21 19 17 16 16 16 14 15 12 15 15 15 16 17 18 14 18 17 17 16 16
13 12 11 13 14 13 15 16 16 17 17 17 18 18 20 21 22 21 20 16 17 16
16 16 17 14 12 11 14 14 14 17 18 21 21 22 23 25 27 23 7 13 18 12
10 12 10 11 10 10 13 13 16 18 19 22 23 25 27 27 24 17 28 41 27 26
8 7 8 9 9 11 14 16 17 19 20 22 23 25 29 30 17 26 13 8 9 21
11 11 11 10 9 10 10 11 15 18 18 21 23 26 29 28 20 19 22 20 26 28
9 9 7 5 4 3 4 6 8 10 11 14 16 18 19 19 19 32 35 31 25 30
11 10 8 5 3 2 4 7 10 14 17 15 14 13 14 13 14 31 40 33 24 23
10 8 6 4 2 2 5 9 9 14 15 15 17 15 13 12 12 18 25 25 30 27
6 4 3 2 2 4 8 11 16 17 20 20 19 19 20 16 14 15 17 20 19 23

GFSNIL_925_spd_345.txt.gz
Wind_Speed
24 16 12 9 9 3 13 17 12 15 10 8 10 11 8 7 5 7 7 8 9 9
21 21 15 12 12 11 6 14 15 19 12 12 16 11 11 9 11 10 11 10 9 10
21 19 19 14 15 16 16 16 11 11 12 15 18 14 12 12 11 14 14 13 12 11
19 17 19 20 11 18 11 14 14 13 16 18 17 17 15 16 17 18 19 13 13 15
21 21 19 18 18 15 17 16 13 14 16 16 18 18 19 21 20 20 17 15 12 8
25 24 14 16 17 16 17 15 17 18 19 20 22 23 24 26 23 17 12 4 4 6
23 21 20 15 20 17 16 17 19 21 21 23 25 26 27 27 25 13 14 12 8 15
16 14 16 18 16 13 13 13 16 18 19 21 24 26 30 30 15 22 14 5 3 14
13 12 10 10 11 12 12 13 15 18 19 21 24 26 25 13 39 18 24 33 22 19
12 12 11 10 9 10 10 10 11 12 13 17 18 17 20 6 21 20 28 36 30 26
13 11 11 10 7 4 4 6 7 9 12 15 17 13 13 11 13 22 26 30 23 23
14 13 10 8 5 2 2 6 7 10 11 12 16 15 12 14 14 17 21 27 28 23
12 11 8 6 2 1 4 8 10 16 14 18 23 21 20 14 14 18 19 20 21 22
11 9 5 3 1 4 9 13 15 17 17 15 18 22 26 26 21 12 13 16 17 14